TimeCST,TemperatureF,Dew PointF,Humidity,Sea Level PressureIn,VisibilityMPH,Wind Direction,Wind SpeedMPH,Gust SpeedMPH,PrecipitationIn,Events,Conditions,WindDirDegrees,DateUTC
12:58 AM,36.1,32.0,85,30.40,10.0,West,2.3,-,N/A,,Clear,280,2013-11-07 06:58:00
1:58 AM,35.4,31.5,85,30.40,10.0,NNW,2.3,-,N/A,,Clear,340,2013-11-07 07:58:00
2:58 AM,35.1,32.2,89,30.40,10.0,NNW,2.3,-,N/A,,Clear,330,2013-11-07 08:58:00
3:58 AM,35.2,31.8,87,30.42,10.0,Calm,Calm,-,N/A,,Clear,0,2013-11-07 09:58:00
4:58 AM,34.0,31.3,90,30.43,6.0,Calm,Calm,-,N/A,,Clear,0,2013-11-07 10:58:00
5:58 AM,34.0,30.2,86,30.45,8.0,Calm,Calm,-,N/A,,Clear,0,2013-11-07 11:58:00
6:58 AM,31.6,28.6,88,30.47,10.0,East,2.3,-,N/A,,Clear,80,2013-11-07 12:58:00
7:58 AM,34.5,31.3,88,30.49,10.0,Calm,Calm,-,N/A,,Clear,0,2013-11-07 13:58:00
8:58 AM,44.6,39.2,81,30.49,10.0,SSW,3.5,-,N/A,,Clear,210,2013-11-07 14:58:00
9:58 AM,55.6,34.2,44,30.49,10.0,West,11.5,16.1,N/A,,Clear,270,2013-11-07 15:58:00
10:58 AM,59.2,32.2,36,30.48,10.0,West,6.9,-,N/A,,Clear,270,2013-11-07 16:58:00
11:58 AM,61.5,31.1,32,30.46,10.0,WSW,6.9,-,N/A,,Clear,250,2013-11-07 17:58:00
12:58 PM,63.1,32.0,31,30.43,10.0,WSW,8.1,-,N/A,,Clear,240,2013-11-07 18:58:00
1:58 PM,64.2,32.0,30,30.40,10.0,Variable,3.5,-,N/A,,Clear,0,2013-11-07 19:58:00
2:58 PM,65.3,31.6,28,30.38,10.0,SW,5.8,-,N/A,,Clear,230,2013-11-07 20:58:00
3:58 PM,64.6,31.1,29,30.38,10.0,WSW,5.8,-,N/A,,Clear,240,2013-11-07 21:58:00
4:58 PM,62.2,30.2,30,30.38,10.0,SSW,4.6,-,N/A,,Clear,210,2013-11-07 22:58:00
5:58 PM,56.7,33.4,42,30.38,10.0,South,3.5,-,N/A,,Clear,180,2013-11-07 23:58:00
6:58 PM,53.6,35.6,51,30.40,10.0,South,5.8,-,N/A,,Clear,180,2013-11-08 00:58:00
7:58 PM,50.9,35.2,55,30.38,10.0,South,8.1,-,N/A,,Clear,190,2013-11-08 01:58:00
8:58 PM,50.5,33.8,53,30.38,10.0,SSW,5.8,-,N/A,,Clear,200,2013-11-08 02:58:00
9:58 PM,47.7,33.4,58,30.37,10.0,SSW,2.3,-,N/A,,Clear,210,2013-11-08 03:58:00
10:58 PM,48.7,33.1,55,30.36,10.0,SSW,6.9,-,N/A,,Clear,200,2013-11-08 04:58:00
11:58 PM,46.2,33.6,61,30.35,10.0,South,4.6,-,N/A,,Clear,190,2013-11-08 05:58:00